Location: Banska Bystrica
(48.7333°N, 19.1500°E)
Time: 01:58:02
(UTC+01:00)

ISS - Pass Details

Date: 29 January 2021
Orbit: 417 x 422 km, 51.6° (Epoch: 06 March)

Event Time Altitude Azimuth Distance (km) Brightness Sun altitude
Rises 18:01:42 0° 283° (WNW) 2,374 1.4 -14.1°
Reaches altitude 10° 18:03:51 10° 288° (WNW) 1,510 0.0 -14.4°
Maximum altitude 18:07:10 51° 6° (N) 537 -3.4 -14.9°
Enters shadow 18:08:22 33° 64° (ENE) 739 -3.1 -15.1°
